星链-30340 (STARLINK-30340 )

导读 | 豆包AI

STARLINK-30340是美国SpaceX公司星链星座的V2 Mini卫星,于2023年9月16日发射升空。作为第二代星链的轻量化版本,该卫星重约800公斤,搭载升级相控阵天线与E频段回传技术,配备氩霍尔推进器,推力和机动效率大幅提升,能提供更大通信带宽,显著增强偏远地区网络连接稳定性,助力星链实现全球高速互联网覆盖的目标。

基本信息
目录编号:
57884
目录名称:
STARLINK-30340
国际标识:
2023-144W
轨道中心:
EARTH
卫星名称:
星链-30340
卫星全名:
星链-30340 (STARLINK-30340 )
卫星状态:
在轨 (已飞行957 天)
发射日期:
2023-09-16 UTC
国别 :
美国 (US)
星等 :
--
轨道信息
数据来源 国际轨道数据
星历时间: 2026-04-30T08:53:13+0800
15小时前
查看轨道信息
半长轴: 6861.194km
偏心率: 0.0001119
轨道倾角: 43.010°
近地点辐角 279.400°
升交点赤经 354.922°
平近点角 80.672°
近地点: 482.289km
远地点: 483.825km
周期: 94.267分钟
每日圈数: 15.275776
详细信息
固有亮度:
5
最大亮度:
0.3
卫星平台:
Starlink v2.0 mini
覆盖范围:
全球
运营商:
太空探索技术公司
运营商所在国:
美国
制造商(研发单位):
太空探索技术公司
制造商所在国:
美国
使用方式:
暂无
卫星简介
星链(Starlink)计划是由太空探索技术公司(SpaceX)提出的一个巨型低轨卫星互联网星座项目,计划在2019年至2024年间在太空搭建由约1.2万颗卫星组成的“星链”网络,其中1584颗将部署在地球上空550千米处的近地轨道,并从2020年开始工作。该卫星仍在工作。
2D轨道图
3D轨道图
轨道高度分析图
轨道倾角分析图
轨道综合分析图
查看轨道综合分析图